Midland, MI

9:45 AM EST on January 16, 2018 (GMT -0500)
Barstow

Weather History for KIKW - January, 2013

Change the Weather History Date:

Saturday, January 19, 2013

  Actual Average (KMBS) Record (KMBS)
Temperature  
Mean Temperature 38 °F -  
Max Temperature 42 °F 24 °F 42 °F (2013)
Min Temperature 33 °F 11 °F -2 °F (1997)
Degree Days  
Heating Degree Days 28    
Moisture  
Dew Point 31 °F    
Average Humidity 75    
Maximum Humidity 96    
Minimum Humidity 67    
Precipitation  
Precipitation 0.00 in - - ()
Sea Level Pressure  
Sea Level Pressure 29.71 in    
Wind  
Wind Speed 10 mph (SW)    
Max Wind Speed 17 mph    
Max Gust Speed 24 mph    
Visibility 10 miles    
Events Rain , Snow    
Averages and records for this station are not official NWS values.
T = Trace of Precipitation, MM = Missing Value Source: NWS Daily Summary

Daily Weather History Graph

Daily Weather History Graph

Search for Another Location

Airport or City:

Trip Planner

Search our weather history database for the weather conditions in past years. The results will help you decide how hot, cold, wet, or windy it might be!

Date:

Astronomy

Jan. 19, 2013 Rise Set
Actual Time 8:04 AM EST 5:31 PM EST
Civil Twilight 7:33 AM EST 6:02 PM EST
Nautical Twilight 6:58 AM EST 6:37 PM EST
Astronomical Twilight 6:24 AM EST 7:12 PM EST
Moon 11:59 AM EST (1/19) 1:35 AM EST (1/19)
Length of Visible Light 10h 29m
Length of Day
9h 26m
First Quarter, 57% of the Moon is Illuminated
Jan 19
First Quarter
Jan 26
Full
Feb 3
Last Quarter
Feb 10
New
Feb 17
First Quarter

Hourly Weather History & Observations

Time (EST) Temp. Windchill Dew Point Humidity Pressure Visibility Wind Dir Wind Speed Gust Speed Precip Events Conditions
12:13 AM 34.0 °F 26.0 °F 24.8 °F 69% 29.82 in 10.0 mi SSW 10.4 mph 19.6 mph N/A   Clear
12:34 AM 34.3 °F 27.0 °F 24.8 °F 68% 29.81 in 10.0 mi SW 9.2 mph 16.1 mph N/A   Clear
12:54 AM 34.2 °F 26.2 °F 24.8 °F 69% 29.81 in 10.0 mi SSW 10.4 mph 17.3 mph N/A   Clear
1:14 AM 33.8 °F 27.0 °F 25.0 °F 70% 29.81 in 10.0 mi SSW 8.1 mph - N/A   Clear
1:34 AM 34.0 °F 25.5 °F 25.2 °F 70% 29.80 in 10.0 mi SSW 11.5 mph 17.3 mph N/A   Clear
1:54 AM 33.6 °F 26.8 °F 25.3 °F 72% 29.80 in 10.0 mi SSW 8.1 mph 16.1 mph N/A   Clear
2:14 AM 33.8 °F 25.3 °F 25.5 °F 72% 29.80 in 10.0 mi SSW 11.5 mph 16.1 mph N/A   Clear
2:34 AM 33.8 °F 25.8 °F 25.7 °F 72% 29.80 in 10.0 mi SSW 10.4 mph - N/A   Clear
2:54 AM 34.0 °F 26.6 °F 26.1 °F 73% 29.81 in 10.0 mi SSW 9.2 mph - N/A   Clear
3:14 AM 34.5 °F 26.7 °F 26.6 °F 73% 29.81 in 10.0 mi SSW 10.4 mph - N/A   Clear
3:34 AM 35.1 °F 28.6 °F 27.1 °F 73% 29.81 in 10.0 mi SSW 8.1 mph - N/A   Mostly Cloudy
3:53 AM 35.8 °F 29.4 °F 27.9 °F 73% 29.81 in 10.0 mi SSW 8.1 mph - N/A   Overcast
4:14 AM 35.8 °F 28.3 °F 28.0 °F 73% 29.79 in 10.0 mi SSW 10.4 mph - N/A   Mostly Cloudy
4:34 AM 36.1 °F 29.3 °F 28.4 °F 73% 29.79 in 10.0 mi SSW 9.2 mph - N/A   Scattered Clouds
4:54 AM 36.5 °F 29.7 °F 28.9 °F 74% 29.79 in 10.0 mi SSW 9.2 mph - N/A   Clear
5:14 AM 36.7 °F 29.9 °F 29.3 °F 75% 29.79 in 10.0 mi SSW 9.2 mph - N/A   Scattered Clouds
5:34 AM 36.7 °F 30.5 °F 29.5 °F 75% 29.80 in 10.0 mi SSW 8.1 mph - N/A   Scattered Clouds
5:54 AM 36.7 °F 30.5 °F 29.7 °F 76% 29.80 in 10.0 mi SSW 8.1 mph - N/A   Scattered Clouds
6:14 AM 36.3 °F 31.6 °F 29.8 °F 77% 29.80 in 10.0 mi SSW 5.8 mph - N/A   Scattered Clouds
6:34 AM 36.5 °F 31.0 °F 30.2 °F 78% 29.81 in 10.0 mi SSW 6.9 mph - N/A   Clear
6:54 AM 36.5 °F 32.7 °F 30.6 °F 79% 29.81 in 10.0 mi SSW 4.6 mph - N/A   Clear
7:14 AM 36.7 °F 32.9 °F 31.1 °F 80% 29.82 in 10.0 mi SSW 4.6 mph - N/A   Clear
7:34 AM 35.8 °F 31.9 °F 30.9 °F 82% 29.82 in 10.0 mi SSW 4.6 mph - N/A   Clear
7:54 AM 36.0 °F 31.1 °F 31.1 °F 82% 29.82 in 10.0 mi SSW 5.8 mph - N/A   Scattered Clouds
8:14 AM 36.7 °F 32.0 °F 31.8 °F 83% 29.82 in 10.0 mi SW 5.8 mph - N/A   Clear
8:34 AM 37.4 °F 32.8 °F 32.0 °F 81% 29.83 in 10.0 mi SW 5.8 mph - N/A   Mostly Cloudy
8:54 AM 37.8 °F 33.3 °F 32.0 °F 80% 29.83 in 10.0 mi SW 5.8 mph - N/A   Overcast
9:14 AM 38.5 °F 33.4 °F 32.4 °F 79% 29.84 in 10.0 mi SW 6.9 mph - N/A   Mostly Cloudy
9:34 AM 38.5 °F 32.7 °F 32.2 °F 78% 29.84 in 10.0 mi SSW 8.1 mph - N/A   Mostly Cloudy
9:54 AM 38.8 °F 33.2 °F 32.2 °F 77% 29.84 in 10.0 mi SSW 8.1 mph - N/A   Overcast
10:14 AM 38.7 °F 32.9 °F 32.0 °F 77% 29.84 in 10.0 mi SSW 8.1 mph - N/A   Overcast
10:34 AM 38.8 °F 33.8 °F 32.0 °F 76% 29.84 in 10.0 mi SSW 6.9 mph - N/A   Overcast
10:54 AM 39.0 °F 34.0 °F 32.2 °F 76% 29.83 in 10.0 mi South 6.9 mph - N/A   Overcast
11:14 AM 38.5 °F 33.4 °F 32.0 °F 78% 29.82 in 10.0 mi South 6.9 mph - N/A   Overcast
11:34 AM 38.5 °F 32.1 °F 31.8 °F 77% 29.82 in 10.0 mi SSW 9.2 mph - N/A   Overcast
11:54 AM 38.8 °F 32.6 °F 31.8 °F 76% 29.80 in 10.0 mi SSW 9.2 mph - N/A   Mostly Cloudy
12:14 PM 39.4 °F 33.2 °F 32.0 °F 75% 29.78 in 10.0 mi SSW 9.2 mph - N/A   Scattered Clouds
12:34 PM 39.4 °F 33.2 °F 31.8 °F 74% 29.76 in 10.0 mi SSW 9.2 mph - N/A   Scattered Clouds
12:54 PM 39.4 °F 33.2 °F 31.8 °F 74% 29.75 in 10.0 mi SSW 9.2 mph - N/A   Overcast
1:14 PM 39.4 °F 33.8 °F 31.6 °F 74% 29.72 in 10.0 mi SSW 8.1 mph 16.1 mph N/A   Overcast
1:34 PM 39.4 °F 32.7 °F 31.8 °F 74% 29.70 in 10.0 mi South 10.4 mph - N/A   Overcast
1:54 PM 39.6 °F 33.0 °F 32.0 °F 74% 29.70 in 10.0 mi SSW 10.4 mph - N/A   Scattered Clouds
2:15 PM 40.1 °F 34.7 °F 32.0 °F 73% 29.69 in 10.0 mi SSW 8.1 mph - N/A   Scattered Clouds
2:34 PM 40.3 °F 34.4 °F 32.0 °F 72% 29.68 in 10.0 mi SSW 9.2 mph - N/A   Scattered Clouds
2:54 PM 41.0 °F 35.2 °F 32.2 °F 71% 29.67 in 10.0 mi SSW 9.2 mph - N/A   Mostly Cloudy
3:14 PM 41.5 °F 35.0 °F 32.2 °F 69% 29.67 in 10.0 mi SSW 11.5 mph - N/A   Mostly Cloudy
3:34 PM 42.3 °F 34.4 °F 32.0 °F 67% 29.65 in 10.0 mi SW 16.1 mph 21.9 mph N/A   Overcast
3:55 PM 42.1 °F 35.2 °F 32.2 °F 68% 29.63 in 10.0 mi SSW 12.7 mph 24.2 mph N/A   Overcast
4:14 PM 42.3 °F 36.3 °F 32.0 °F 67% 29.62 in 10.0 mi SSW 10.4 mph 18.4 mph N/A   Overcast
4:34 PM 42.1 °F 35.2 °F 32.0 °F 67% 29.62 in 10.0 mi SSW 12.7 mph 19.6 mph N/A   Overcast
4:54 PM 42.3 °F 35.9 °F 32.4 °F 68% 29.62 in 10.0 mi SSW 11.5 mph 17.3 mph N/A   Overcast
5:14 PM 41.5 °F 34.6 °F 32.0 °F 69% 29.62 in 10.0 mi SW 12.7 mph 17.3 mph N/A   Scattered Clouds
5:35 PM 41.4 °F 34.0 °F 32.0 °F 69% 29.60 in 10.0 mi SSW 13.8 mph - N/A   Clear
5:54 PM 41.0 °F 33.9 °F 32.0 °F 70% 29.59 in 10.0 mi SSW 12.7 mph 19.6 mph N/A   Clear
6:14 PM 40.8 °F 35.0 °F 32.0 °F 71% 29.60 in 10.0 mi SW 9.2 mph 18.4 mph N/A   Clear
6:35 PM 40.3 °F 33.4 °F 32.0 °F 72% 29.60 in 10.0 mi SW 11.5 mph 16.1 mph N/A   Clear
6:54 PM 40.5 °F 32.5 °F 32.0 °F 72% 29.57 in 10.0 mi SSW 15.0 mph 19.6 mph N/A   Scattered Clouds
7:14 PM 40.6 °F 32.7 °F 32.0 °F 71% 29.57 in 10.0 mi SW 15.0 mph 19.6 mph N/A   Scattered Clouds
7:34 PM 40.5 °F 32.8 °F 32.2 °F 72% 29.57 in 10.0 mi SSW 13.8 mph 19.6 mph N/A   Clear
7:54 PM 40.1 °F 33.2 °F 32.4 °F 74% 29.56 in 10.0 mi SW 11.5 mph 17.3 mph N/A   Scattered Clouds
8:15 PM 40.6 °F 33.8 °F 32.5 °F 73% 29.54 in 10.0 mi SW 11.5 mph 17.3 mph N/A   Mostly Cloudy
8:34 PM 40.5 °F 33.2 °F 33.3 °F 75% 29.54 in 10.0 mi SW 12.7 mph 17.3 mph N/A   Overcast
8:54 PM 41.0 °F 32.5 °F 34.5 °F 78% 29.52 in 10.0 mi WSW 17.3 mph 20.7 mph N/A Rain Light Rain
9:15 PM 41.9 °F 33.7 °F 35.8 °F 79% 29.51 in 10.0 mi SW 17.3 mph 24.2 mph N/A Rain Rain
9:34 PM 41.5 °F 34.6 °F 36.0 °F 81% 29.50 in 10.0 mi SW 12.7 mph 21.9 mph N/A   Overcast
9:54 PM 41.2 °F 33.0 °F 36.0 °F 82% 29.49 in 10.0 mi SW 16.1 mph 24.2 mph N/A   Drizzle
10:15 PM 41.2 °F 33.0 °F 36.1 °F 82% 29.48 in 10.0 mi SW 16.1 mph 21.9 mph N/A   Light Drizzle
10:34 PM 41.2 °F 33.0 °F 36.1 °F 82% 29.46 in 10.0 mi SW 16.1 mph 23.0 mph N/A   Light Drizzle
10:55 PM 41.9 °F 35.0 °F 35.8 °F 79% 29.45 in 10.0 mi SW 12.7 mph 21.9 mph N/A   Overcast
11:14 PM 34.3 °F 25.0 °F 32.0 °F 91% 29.50 in 1.0 mi West 13.8 mph 23.0 mph N/A Snow Light Snow
11:35 PM 33.8 °F 26.4 °F 32.9 °F 96% 29.49 in 1.8 mi West 9.2 mph - N/A Snow Light Snow
11:54 PM 33.8 °F 28.6 °F 32.9 °F 96% 29.48 in 10.0 mi WSW 5.8 mph - N/A Snow Light Snow